When you browse on this site, cookies collect data to enhance your experience and personalize the content and advertising you see.
Visit our Privacy Policy to learn more. By continuing to use the site, you agree to this use of cookies and data.
  • En España
  • Lista de países
  • Para 7 días
  • Temperatura del agua
  • Mapa Satelital
  • El tiempo en el mapa
  • Informadores
  • user-avatar
    Iniciar sesión

    Tiempo cada hora Vanadzor

    Hoy, 16 Enero, Miércoles

    Tiempo Temperatura Precipitaciones Viento Presión Humedad
    00:00 -4°C° 0 mm 3 mps 630 mmHg 81%
    01:00 -5°C° 0 mm 3 mps 629 mmHg 81%
    02:00 -5°C° 0 mm 3 mps 629 mmHg 81%
    03:00 -4°C° 0 mm 4 mps 629 mmHg 81%
    04:00 -5°C° 0 mm 4 mps 629 mmHg 82%
    05:00 -5°C° 0 mm 4 mps 629 mmHg 82%
    06:00 -5°C° 0 mm 4 mps 629 mmHg 82%
    07:00 -4°C° 0 mm 4 mps 629 mmHg 81%
    08:00 -4°C° 0 mm 4 mps 629 mmHg 80%
    09:00 -3°C° 0 mm 4 mps 629 mmHg 79%
    10:00 -2°C° 0 mm 4 mps 629 mmHg 76%
    11:00 -1°C° 0 mm 4 mps 629 mmHg 73%
    12:00 0°C° 0 mm 4 mps 629 mmHg 70%
    13:00 +1°C° 0 mm 3 mps 628 mmHg 70%
    14:00 +2°C° 0 mm 2 mps 628 mmHg 71%
    15:00 +2°C° 0 mm 2 mps 627 mmHg 72%
    16:00 -1°C° 0 mm 2 mps 627 mmHg 73%
    17:00 -2°C° 0 mm 2 mps 626 mmHg 75%
    18:00 -4°C° 0 mm 2 mps 626 mmHg 77%
    19:00 -4°C° 0 mm 2 mps 626 mmHg 75%
    20:00 -5°C° 0 mm 2 mps 625 mmHg 74%
    21:00 -5°C° 0 mm 2 mps 625 mmHg 72%
    22:00 -5°C° 0 mm 2 mps 625 mmHg 72%
    23:00 -5°C° 0 mm 2 mps 625 mmHg 72%

    Mañana, 17 Enero, Jueves

    Tiempo Temperatura Precipitaciones Viento Presión Humedad
    00:00 -4°C° 0 mm 2 mps 624 mmHg 72%
    01:00 -4°C° 0 mm 2 mps 624 mmHg 72%
    02:00 -2°C° 0 mm 1 mps 624 mmHg 73%
    03:00 -2°C° 0 mm 1 mps 624 mmHg 74%
    04:00 -2°C° 0.2 mm 1 mps 624 mmHg 77%
    05:00 -3°C° 0.2 mm 0 mps 624 mmHg 81%
    06:00 -3°C° 0.2 mm 0 mps 624 mmHg 84%
    07:00 -2°C° 0.7 mm 1 mps 624 mmHg 88%
    08:00 -2°C° 0.7 mm 1 mps 625 mmHg 91%
    09:00 -2°C° 0.7 mm 1 mps 625 mmHg 95%
    10:00 -3°C° 0.7 mm 2 mps 625 mmHg 94%
    11:00 -3°C° 0.7 mm 2 mps 625 mmHg 94%
    12:00 -3°C° 0.7 mm 2 mps 626 mmHg 93%
    13:00 -3°C° 0.3 mm 2 mps 626 mmHg 91%
    14:00 -3°C° 0.3 mm 2 mps 626 mmHg 90%
    15:00 -3°C° 0.3 mm 2 mps 626 mmHg 88%
    16:00 -4°C° 0.1 mm 2 mps 627 mmHg 89%
    17:00 -5°C° 0.1 mm 2 mps 627 mmHg 90%
    18:00 -4°C° 0.1 mm 1 mps 628 mmHg 91%
    19:00 -4°C° 0.1 mm 1 mps 628 mmHg 91%
    20:00 -6°C° 0.1 mm 1 mps 629 mmHg 90%
    21:00 -6°C° 0.1 mm 1 mps 629 mmHg 89%
    22:00 -7°C° 0 mm 1 mps 629 mmHg 87%
    23:00 -7°C° 0 mm 1 mps 630 mmHg 84%

    Pasado mañana, 18 Enero, Viernes

    Tiempo Temperatura Precipitaciones Viento Presión Humedad
    00:00 -7°C° 0 mm 1 mps 630 mmHg 82%
    01:00 -7°C° 0 mm 1 mps 630 mmHg 80%
    02:00 -7°C° 0 mm 1 mps 631 mmHg 78%
    03:00 -7°C° 0 mm 1 mps 631 mmHg 76%
    04:00 -8°C° 0 mm 1 mps 632 mmHg 76%
    05:00 -8°C° 0 mm 1 mps 632 mmHg 75%
    06:00 -8°C° 0 mm 1 mps 632 mmHg 75%
    07:00 -7°C° 0 mm 1 mps 633 mmHg 75%
    08:00 -7°C° 0 mm 1 mps 633 mmHg 74%
    09:00 -6°C° 0 mm 1 mps 634 mmHg 74%
    10:00 -4°C° 0 mm 1 mps 634 mmHg 72%
    11:00 -2°C° 0 mm 1 mps 634 mmHg 69%
    12:00 -1°C° 0 mm 1 mps 634 mmHg 67%
    13:00 -1°C° 0 mm 1 mps 634 mmHg 68%
    14:00 -1°C° 0 mm 1 mps 634 mmHg 70%
    15:00 -1°C° 0 mm 1 mps 634 mmHg 72%
    16:00 -3°C° 0 mm 1 mps 634 mmHg 73%
    17:00 -4°C° 0 mm 1 mps 634 mmHg 75%
    18:00 -8°C° 0 mm 2 mps 634 mmHg 77%
    19:00 -9°C° 0 mm 2 mps 634 mmHg 75%
    20:00 -9°C° 0 mm 2 mps 634 mmHg 73%
    21:00 -9°C° 0 mm 2 mps 634 mmHg 72%
    22:00 -10°C° 0 mm 2 mps 634 mmHg 71%
    23:00 -10°C° 0 mm 2 mps 634 mmHg 70%

    19 Enero, Sábado

    Tiempo Temperatura Precipitaciones Viento Presión Humedad
    00:00 -10°C° 0 mm 2 mps 634 mmHg 69%
    01:00 -10°C° 0 mm 2 mps 634 mmHg 69%
    02:00 -10°C° 0 mm 2 mps 634 mmHg 70%
    03:00 -10°C° 0 mm 2 mps 634 mmHg 70%
    04:00 -10°C° 0 mm 2 mps 634 mmHg 70%
    05:00 -12°C° 0 mm 3 mps 634 mmHg 71%
    06:00 -12°C° 0 mm 3 mps 634 mmHg 72%
    07:00 -12°C° 0 mm 3 mps 634 mmHg 71%
    08:00 -10°C° 0 mm 3 mps 634 mmHg 71%
    09:00 -9°C° 0 mm 3 mps 635 mmHg 71%
    10:00 -7°C° 0 mm 3 mps 634 mmHg 69%
    11:00 -6°C° 0 mm 3 mps 634 mmHg 68%
    12:00 -4°C° 0 mm 3 mps 634 mmHg 66%
    13:00 -3°C° 0 mm 2 mps 634 mmHg 67%
    14:00 -3°C° 0 mm 2 mps 634 mmHg 67%
    15:00 -3°C° 0 mm 2 mps 633 mmHg 68%
    16:00 -5°C° 0 mm 2 mps 633 mmHg 66%
    17:00 -7°C° 0 mm 2 mps 633 mmHg 63%
    18:00 -9°C° 0 mm 2 mps 633 mmHg 61%
    19:00 -9°C° 0 mm 2 mps 633 mmHg 58%
    20:00 -9°C° 0 mm 2 mps 633 mmHg 55%
    21:00 -10°C° 0 mm 2 mps 633 mmHg 52%
    22:00 -10°C° 0 mm 2 mps 634 mmHg 52%
    23:00 -10°C° 0 mm 2 mps 634 mmHg 52%

    20 Enero, Domingo

    Tiempo Temperatura Precipitaciones Viento Presión Humedad
    00:00 -10°C° 0 mm 2 mps 634 mmHg 53%
    01:00 -10°C° 0 mm 2 mps 634 mmHg 53%
    02:00 -10°C° 0 mm 2 mps 634 mmHg 54%
    03:00 -10°C° 0 mm 2 mps 633 mmHg 54%
    04:00 -10°C° 0 mm 2 mps 634 mmHg 54%
    05:00 -10°C° 0 mm 2 mps 634 mmHg 54%
    06:00 -10°C° 0 mm 2 mps 634 mmHg 54%
    07:00 -9°C° 0 mm 2 mps 634 mmHg 57%
    08:00 -8°C° 0 mm 2 mps 635 mmHg 60%
    09:00 -7°C° 0 mm 2 mps 635 mmHg 63%
    10:00 -5°C° 0 mm 2 mps 635 mmHg 63%
    11:00 -4°C° 0 mm 2 mps 635 mmHg 63%
    12:00 -3°C° 0 mm 2 mps 636 mmHg 64%
    13:00 -1°C° 0 mm 1 mps 635 mmHg 66%
    14:00 -1°C° 0 mm 1 mps 635 mmHg 69%
    15:00 -1°C° 0 mm 1 mps 635 mmHg 71%
    16:00 -2°C° 0 mm 1 mps 635 mmHg 72%
    17:00 -3°C° 0 mm 1 mps 635 mmHg 74%
    18:00 -4°C° 0 mm 1 mps 635 mmHg 75%
    19:00 -6°C° 0 mm 1 mps 635 mmHg 73%
    20:00 -7°C° 0 mm 2 mps 635 mmHg 71%
    21:00 -8°C° 0 mm 2 mps 635 mmHg 69%
    22:00 -8°C° 0 mm 2 mps 635 mmHg 67%
    23:00 -9°C° 0 mm 2 mps 635 mmHg 66%

    21 Enero, Lunes

    Tiempo Temperatura Precipitaciones Viento Presión Humedad
    00:00 -9°C° 0 mm 2 mps 634 mmHg 64%
    01:00 -9°C° 0 mm 2 mps 634 mmHg 63%
    02:00 -10°C° 0 mm 2 mps 634 mmHg 62%
    03:00 -10°C° 0 mm 2 mps 634 mmHg 62%
    04:00 -10°C° 0 mm 2 mps 634 mmHg 62%
    05:00 -10°C° 0 mm 2 mps 634 mmHg 62%
    06:00 -10°C° 0 mm 2 mps 634 mmHg 62%
    07:00 -9°C° 0 mm 2 mps 634 mmHg 63%
    08:00 -9°C° 0 mm 2 mps 635 mmHg 64%
    09:00 -8°C° 0 mm 2 mps 635 mmHg 65%
    10:00 -6°C° 0 mm 2 mps 635 mmHg 64%
    11:00 -5°C° 0 mm 2 mps 635 mmHg 63%
    12:00 -3°C° 0 mm 2 mps 635 mmHg 61%
    13:00 -3°C° 0 mm 2 mps 635 mmHg 63%
    14:00 -1°C° 0 mm 1 mps 634 mmHg 65%
    15:00 -1°C° 0 mm 1 mps 634 mmHg 66%
    16:00 -5°C° 0 mm 2 mps 633 mmHg 66%
    17:00 -7°C° 0 mm 2 mps 633 mmHg 67%
    18:00 -8°C° 0 mm 2 mps 633 mmHg 67%
    19:00 -9°C° 0 mm 2 mps 633 mmHg 64%
    20:00 -9°C° 0 mm 2 mps 633 mmHg 61%
    21:00 -9°C° 0 mm 2 mps 633 mmHg 57%
    22:00 -10°C° 0 mm 3 mps 633 mmHg 57%
    23:00 -10°C° 0 mm 3 mps 633 mmHg 57%
    Mostrar más